FDX3685 KLAX-KSEA

Flight info

Callsign FDX3685
Flight time 1h 54m
Altitude 38000
Route LADYJ4 CSTRO SHIMR LKV HAWKZ8
Aircraft MD11/H-SDE1E2E3FGHIJ2J3J4J5M1RWXY/LB1D1

Departure

Time 2026-04-20 15:38
Airport Los Angeles International Airport (KLAX)

Arrival

Time 2026-04-20 17:32
Airport Seattle–Tacoma International Airport (KSEA)
Time Latitude Longitude Altitude Speed Heading
2026-04-20 15:09 33.93407 -118.38773 100 ft 0 kts 173°
2026-04-20 15:27 33.93414 -118.38774 102 ft 4 kts 173°
2026-04-20 15:27 33.93441 -118.38778 100 ft 4 kts 173°
2026-04-20 15:27 33.93462 -118.38784 99 ft 4 kts 135°
2026-04-20 15:27 33.93471 -118.38802 99 ft 3 kts 85°
2026-04-20 15:28 33.93470 -118.38816 98 ft 4 kts 83°
2026-04-20 15:28 33.93468 -118.38840 97 ft 0 kts 83°
2026-04-20 15:32 33.93468 -118.38835 97 ft 1 kts 83°
2026-04-20 15:32 33.93473 -118.38814 99 ft 2 kts 68°
2026-04-20 15:33 33.93488 -118.38800 102 ft 2 kts 26°
2026-04-20 15:33 33.93518 -118.38786 101 ft 6 kts 20°
2026-04-20 15:33 33.93546 -118.38764 103 ft 6 kts 48°
2026-04-20 15:33 33.93566 -118.38707 103 ft 9 kts 74°
2026-04-20 15:34 33.93576 -118.38628 103 ft 9 kts 84°
2026-04-20 15:34 33.93580 -118.38559 104 ft 8 kts 88°
2026-04-20 15:34 33.93585 -118.38502 102 ft 6 kts 82°
2026-04-20 15:34 33.93590 -118.38456 101 ft 5 kts 82°
2026-04-20 15:35 33.93594 -118.38417 101 ft 4 kts 83°
2026-04-20 15:35 33.93597 -118.38386 103 ft 3 kts 83°
2026-04-20 15:35 33.93601 -118.38356 101 ft 5 kts 78°
2026-04-20 15:35 33.93612 -118.38313 103 ft 0 kts 63°
2026-04-20 15:36 33.93622 -118.38296 99 ft 6 kts 51°
2026-04-20 15:37 33.93678 -118.38284 105 ft 11 kts 347°
2026-04-20 15:37 33.93722 -118.38383 107 ft 19 kts 272°
2026-04-20 15:37 33.93704 -118.38603 102 ft 37 kts 263°
2026-04-20 15:37 33.93640 -118.39238 102 ft 122 kts 262°
2026-04-20 15:38 33.93500 -118.40580 200 ft 189 kts 262°
2026-04-20 15:38 33.93349 -118.42127 1189 ft 182 kts 263°
2026-04-20 15:38 33.93235 -118.43624 2255 ft 178 kts 264°
2026-04-20 15:38 33.93133 -118.45112 3198 ft 181 kts 264°
2026-04-20 15:39 33.93014 -118.46677 3872 ft 208 kts 263°
2026-04-20 15:39 33.92859 -118.48632 4021 ft 254 kts 263°
2026-04-20 15:39 33.92688 -118.50791 4841 ft 266 kts 263°
2026-04-20 15:39 33.92519 -118.53014 5966 ft 268 kts 263°
2026-04-20 15:40 33.92353 -118.55263 7028 ft 272 kts 263°
2026-04-20 15:40 33.92183 -118.57542 8041 ft 275 kts 262°
2026-04-20 15:40 33.92078 -118.59861 9088 ft 280 kts 270°
2026-04-20 15:40 33.92502 -118.62177 10111 ft 291 kts 292°
2026-04-20 15:41 33.93733 -118.64275 10394 ft 330 kts 315°
2026-04-20 15:41 33.95710 -118.65951 10547 ft 365 kts 328°
2026-04-20 15:41 33.98021 -118.67340 11179 ft 377 kts 338°
2026-04-20 15:41 34.00613 -118.67954 12082 ft 385 kts 355°
2026-04-20 15:42 34.03320 -118.67923 12915 ft 392 kts
2026-04-20 15:42 34.06063 -118.67658 13751 ft 399 kts
2026-04-20 15:42 34.08831 -118.67177 14488 ft 404 kts
2026-04-20 15:42 34.11605 -118.66503 15225 ft 409 kts 11°
2026-04-20 15:43 34.14395 -118.65769 15969 ft 412 kts 12°
2026-04-20 15:43 34.17219 -118.65030 16685 ft 418 kts 11°
2026-04-20 15:43 34.20076 -118.64304 17364 ft 423 kts 11°
2026-04-20 15:43 34.22977 -118.63609 18011 ft 427 kts
2026-04-20 15:44 34.25939 -118.63499 18630 ft 427 kts 353°
2026-04-20 15:44 34.28896 -118.63960 19219 ft 429 kts 347°
2026-04-20 15:44 34.31830 -118.64658 19809 ft 431 kts 345°
2026-04-20 15:44 34.34769 -118.65424 20410 ft 433 kts 345°
2026-04-20 15:45 34.37730 -118.66189 21002 ft 436 kts 345°
2026-04-20 15:45 34.40710 -118.66932 21521 ft 441 kts 345°
2026-04-20 15:45 34.43738 -118.67627 22117 ft 444 kts 346°
2026-04-20 15:45 34.46800 -118.68263 22724 ft 448 kts 347°
2026-04-20 15:46 34.49887 -118.68872 23343 ft 451 kts 347°
2026-04-20 15:46 34.52990 -118.69473 23902 ft 454 kts 347°
2026-04-20 15:46 34.56124 -118.70079 24449 ft 457 kts 347°
2026-04-20 15:46 34.59280 -118.70690 24964 ft 461 kts 347°
2026-04-20 15:47 34.62461 -118.71310 25483 ft 465 kts 347°
2026-04-20 15:47 34.65659 -118.71938 26030 ft 469 kts 347°
2026-04-20 15:47 34.68896 -118.72575 26566 ft 472 kts 347°
2026-04-20 15:47 34.72113 -118.73366 27039 ft 472 kts 339°
2026-04-20 15:48 34.75152 -118.74821 27580 ft 469 kts 330°
2026-04-20 15:48 34.78034 -118.76693 28080 ft 470 kts 326°
2026-04-20 15:48 34.80818 -118.78712 28561 ft 474 kts 324°
2026-04-20 15:48 34.83640 -118.80805 29090 ft 477 kts 324°
2026-04-20 15:49 34.86529 -118.82921 29600 ft 480 kts 325°
2026-04-20 15:49 34.89385 -118.84971 30068 ft 484 kts 326°
2026-04-20 15:49 34.92302 -118.87029 30552 ft 485 kts 326°
2026-04-20 15:49 34.95231 -118.89071 31066 ft 484 kts 327°
2026-04-20 15:50 34.98152 -118.91099 31626 ft 482 kts 327°
2026-04-20 15:50 35.01062 -118.93117 32199 ft 480 kts 327°
2026-04-20 15:50 35.03956 -118.95127 32758 ft 478 kts 327°
2026-04-20 15:50 35.06837 -118.97131 33233 ft 478 kts 327°
2026-04-20 15:51 35.09721 -118.99141 33689 ft 477 kts 328°
2026-04-20 15:51 35.12598 -119.01149 34145 ft 475 kts 328°
2026-04-20 15:51 35.15463 -119.03151 34559 ft 474 kts 328°
2026-04-20 15:51 35.18327 -119.05154 34983 ft 473 kts 328°
2026-04-20 15:52 35.21166 -119.07141 35380 ft 470 kts 328°
2026-04-20 15:52 35.24006 -119.09129 35767 ft 469 kts 328°
2026-04-20 15:52 35.26833 -119.11112 36137 ft 468 kts 328°
2026-04-20 15:53 35.32464 -119.15064 36842 ft 465 kts 328°
2026-04-20 15:53 35.35268 -119.17034 37182 ft 464 kts 328°
2026-04-20 15:53 35.38067 -119.19002 37511 ft 463 kts 328°
2026-04-20 15:53 35.40859 -119.20967 37848 ft 462 kts 328°
2026-04-20 15:54 35.43734 -119.22752 37968 ft 465 kts 336°
2026-04-20 15:54 35.46807 -119.24040 37998 ft 468 kts 342°
2026-04-20 15:54 35.53161 -119.25917 38014 ft 471 kts 345°
2026-04-20 15:55 35.59526 -119.27668 38027 ft 472 kts 344°
2026-04-20 15:55 35.65918 -119.29535 38026 ft 472 kts 343°
2026-04-20 15:56 35.72301 -119.31460 38026 ft 473 kts 343°
2026-04-20 15:56 35.78691 -119.33399 38037 ft 473 kts 343°
2026-04-20 15:57 35.85079 -119.35338 38020 ft 473 kts 343°
2026-04-20 15:57 35.91475 -119.37282 38006 ft 473 kts 343°
2026-04-20 15:58 35.97874 -119.39228 38009 ft 473 kts 343°
2026-04-20 15:58 36.04268 -119.41176 38009 ft 474 kts 343°
2026-04-20 15:59 36.10662 -119.43128 38014 ft 474 kts 343°
2026-04-20 15:59 36.17061 -119.45085 38020 ft 474 kts 343°
2026-04-20 16:00 36.23461 -119.47045 38024 ft 474 kts 343°
2026-04-20 16:00 36.29871 -119.49020 38028 ft 475 kts 343°
2026-04-20 16:01 36.36280 -119.50995 38039 ft 474 kts 343°
2026-04-20 16:01 36.42693 -119.52971 37998 ft 475 kts 342°
2026-04-20 16:02 36.49111 -119.54949 38007 ft 477 kts 342°
2026-04-20 16:02 36.55553 -119.56939 38000 ft 477 kts 342°
2026-04-20 16:03 36.61999 -119.58933 38021 ft 477 kts 342°
2026-04-20 16:03 36.68441 -119.60930 38031 ft 477 kts 342°
2026-04-20 16:04 36.74882 -119.62931 38035 ft 477 kts 342°
2026-04-20 16:04 36.81315 -119.64931 38036 ft 477 kts 342°
2026-04-20 16:05 36.87759 -119.66939 38034 ft 477 kts 342°
2026-04-20 16:05 36.94197 -119.68949 38021 ft 477 kts 342°
2026-04-20 16:06 37.00593 -119.70948 38015 ft 477 kts 342°
2026-04-20 16:06 37.07032 -119.72967 38001 ft 477 kts 342°
2026-04-20 16:07 37.13509 -119.75009 37990 ft 477 kts 342°
2026-04-20 16:07 37.19902 -119.77023 37993 ft 477 kts 342°
2026-04-20 16:08 37.26356 -119.79055 37995 ft 478 kts 342°
2026-04-20 16:08 37.32797 -119.81087 37998 ft 478 kts 342°
2026-04-20 16:09 37.39256 -119.83126 38001 ft 479 kts 341°
2026-04-20 16:09 37.45724 -119.85172 37991 ft 480 kts 341°
2026-04-20 16:10 37.52208 -119.87230 37993 ft 480 kts 341°
2026-04-20 16:10 37.58692 -119.89290 37991 ft 481 kts 341°
2026-04-20 16:11 37.65187 -119.91358 37991 ft 481 kts 341°
2026-04-20 16:11 37.71676 -119.93426 37992 ft 481 kts 341°
2026-04-20 16:12 37.78155 -119.95496 37989 ft 481 kts 341°
2026-04-20 16:12 37.84634 -119.97568 37991 ft 480 kts 341°
2026-04-20 16:13 37.91116 -119.99655 37992 ft 481 kts 341°
2026-04-20 16:13 37.97597 -120.01744 37992 ft 481 kts 341°
2026-04-20 16:14 38.04086 -120.03833 37997 ft 481 kts 341°
2026-04-20 16:14 38.10567 -120.05922 37988 ft 481 kts 341°
2026-04-20 16:15 38.17063 -120.08021 37989 ft 482 kts 341°
2026-04-20 16:15 38.23663 -120.09674 37986 ft 487 kts 350°
2026-04-20 16:16 38.30435 -120.10335 37982 ft 489 kts 353°
2026-04-20 16:16 38.36075 -120.10742 37982 ft 489 kts 353°
2026-04-20 16:17 38.42864 -120.11298 37980 ft 489 kts 352°
2026-04-20 16:17 38.49663 -120.11900 37981 ft 491 kts 352°
2026-04-20 16:18 38.56481 -120.12538 37973 ft 492 kts 352°
2026-04-20 16:18 38.63316 -120.13176 37970 ft 492 kts 352°
2026-04-20 16:19 38.70152 -120.13809 37969 ft 492 kts 352°
2026-04-20 16:19 38.76980 -120.14440 37961 ft 492 kts 352°
2026-04-20 16:20 38.83812 -120.15072 37966 ft 492 kts 352°
2026-04-20 16:20 38.90653 -120.15707 37973 ft 493 kts 352°
2026-04-20 16:21 38.97479 -120.16341 37964 ft 491 kts 351°
2026-04-20 16:21 39.04301 -120.16978 37984 ft 491 kts 351°
2026-04-20 16:22 39.11115 -120.17618 38022 ft 492 kts 351°
2026-04-20 16:22 39.17948 -120.18259 38033 ft 492 kts 351°
2026-04-20 16:23 39.24777 -120.18900 38053 ft 492 kts 351°
2026-04-20 16:23 39.31621 -120.19542 38062 ft 493 kts 351°
2026-04-20 16:24 39.38412 -120.20182 37908 ft 493 kts 351°
2026-04-20 16:24 39.45296 -120.20831 37907 ft 493 kts 351°
2026-04-20 16:25 39.52097 -120.21474 37906 ft 494 kts 350°
2026-04-20 16:25 39.58955 -120.22124 37903 ft 495 kts 351°
2026-04-20 16:26 39.65818 -120.22775 37899 ft 495 kts 351°
2026-04-20 16:26 39.72694 -120.23428 37896 ft 496 kts 350°
2026-04-20 16:27 39.79577 -120.24084 37890 ft 496 kts 350°
2026-04-20 16:27 39.86467 -120.24742 37912 ft 496 kts 350°
2026-04-20 16:28 39.93365 -120.25404 37884 ft 497 kts 349°
2026-04-20 16:28 40.00268 -120.26068 37888 ft 498 kts 350°
2026-04-20 16:29 40.07172 -120.26731 37898 ft 498 kts 349°
2026-04-20 16:29 40.14087 -120.27397 37902 ft 498 kts 349°
2026-04-20 16:30 40.21008 -120.28064 37915 ft 498 kts 349°
2026-04-20 16:30 40.27920 -120.28731 37935 ft 498 kts 349°
2026-04-20 16:31 40.34841 -120.29402 37944 ft 498 kts 349°
2026-04-20 16:31 40.41758 -120.30073 37946 ft 498 kts 349°
2026-04-20 16:32 40.48665 -120.30744 37942 ft 498 kts 349°
2026-04-20 16:32 40.55584 -120.31419 37928 ft 498 kts 349°
2026-04-20 16:33 40.62502 -120.32094 37912 ft 498 kts 349°
2026-04-20 16:33 40.69372 -120.32766 37898 ft 498 kts 349°
2026-04-20 16:34 40.76289 -120.33447 37892 ft 498 kts 349°
2026-04-20 16:34 40.83212 -120.34132 37902 ft 502 kts 350°
2026-04-20 16:35 40.90198 -120.34822 37899 ft 504 kts 350°
2026-04-20 16:35 40.97202 -120.35510 37905 ft 504 kts 350°
2026-04-20 16:36 41.04218 -120.36204 37902 ft 507 kts 350°
2026-04-20 16:36 41.11256 -120.36899 37903 ft 505 kts 350°
2026-04-20 16:37 41.18262 -120.37593 37919 ft 505 kts 349°
2026-04-20 16:37 41.25282 -120.38293 37927 ft 506 kts 349°
2026-04-20 16:38 41.32311 -120.38995 37941 ft 507 kts 350°
2026-04-20 16:38 41.39343 -120.39697 37958 ft 507 kts 349°
2026-04-20 16:39 41.46382 -120.40401 37957 ft 505 kts 350°
2026-04-20 16:39 41.53383 -120.41102 37903 ft 504 kts 349°
2026-04-20 16:40 41.60397 -120.41814 37914 ft 507 kts 349°
2026-04-20 16:40 41.67437 -120.42527 37909 ft 507 kts 349°
2026-04-20 16:41 41.74483 -120.43238 37937 ft 508 kts 349°
2026-04-20 16:41 41.81543 -120.43953 37899 ft 509 kts 349°
2026-04-20 16:42 41.88545 -120.44661 37935 ft 508 kts 349°
2026-04-20 16:42 41.95605 -120.45380 37957 ft 510 kts 349°
2026-04-20 16:43 42.02689 -120.46104 37971 ft 511 kts 349°
2026-04-20 16:43 42.09780 -120.46828 37983 ft 511 kts 349°
2026-04-20 16:44 42.16877 -120.47555 37948 ft 513 kts 349°
2026-04-20 16:44 42.23967 -120.48280 37917 ft 510 kts 350°
2026-04-20 16:45 42.31051 -120.49008 37929 ft 510 kts 350°
2026-04-20 16:45 42.38132 -120.49741 37923 ft 511 kts 349°
2026-04-20 16:46 42.45227 -120.50478 37915 ft 511 kts 349°
2026-04-20 16:46 42.52178 -120.51918 37915 ft 498 kts 335°
2026-04-20 16:47 42.58471 -120.55512 37909 ft 487 kts 326°
2026-04-20 16:47 42.64560 -120.59554 37919 ft 487 kts 327°
2026-04-20 16:48 42.70710 -120.63462 37920 ft 489 kts 328°
2026-04-20 16:48 42.76914 -120.67265 37913 ft 490 kts 328°
2026-04-20 16:49 42.83134 -120.71054 37913 ft 490 kts 328°
2026-04-20 16:49 42.89362 -120.74862 37913 ft 492 kts 328°
2026-04-20 16:50 42.95610 -120.78696 37906 ft 492 kts 328°
2026-04-20 16:50 43.01863 -120.82539 37911 ft 493 kts 328°
2026-04-20 16:51 43.08081 -120.86377 37917 ft 495 kts 328°
2026-04-20 16:51 43.14356 -120.90256 37912 ft 495 kts 328°
2026-04-20 16:52 43.20634 -120.94143 37929 ft 495 kts 328°
2026-04-20 16:52 43.26928 -120.98055 37912 ft 497 kts 328°
2026-04-20 16:53 43.33201 -121.01977 37913 ft 493 kts 328°
2026-04-20 16:53 43.39442 -121.05880 37931 ft 494 kts 328°
2026-04-20 16:54 43.45700 -121.09798 37909 ft 495 kts 328°
2026-04-20 16:54 43.51967 -121.13723 37913 ft 495 kts 328°
2026-04-20 16:55 43.58242 -121.17664 37925 ft 497 kts 328°
2026-04-20 16:55 43.64547 -121.21634 37904 ft 499 kts 328°
2026-04-20 16:56 43.70855 -121.25611 37898 ft 499 kts 328°
2026-04-20 16:56 43.77175 -121.29607 37904 ft 500 kts 327°
2026-04-20 16:57 43.83466 -121.33592 37886 ft 484 kts 327°
2026-04-20 16:57 43.89587 -121.37471 37914 ft 489 kts 327°
2026-04-20 16:58 43.95852 -121.41472 37926 ft 502 kts 327°
2026-04-20 16:58 44.02222 -121.45523 37897 ft 504 kts 327°
2026-04-20 16:59 44.08566 -121.49554 37916 ft 500 kts 327°
2026-04-20 16:59 44.14898 -121.53598 37913 ft 501 kts 327°
2026-04-20 17:00 44.24411 -121.59696 37909 ft 502 kts 327°
2026-04-20 17:01 44.30746 -121.63768 37904 ft 502 kts 327°
2026-04-20 17:01 44.37089 -121.67855 37899 ft 502 kts 327°
2026-04-20 17:02 44.43420 -121.71943 37899 ft 502 kts 327°
2026-04-20 17:02 44.49768 -121.76056 37907 ft 503 kts 327°
2026-04-20 17:03 44.56107 -121.80182 37904 ft 503 kts 327°
2026-04-20 17:03 44.62451 -121.84329 37896 ft 503 kts 327°
2026-04-20 17:04 44.67726 -121.87777 37900 ft 504 kts 327°
2026-04-20 17:04 44.74083 -121.91936 37895 ft 504 kts 327°
2026-04-20 17:05 44.80432 -121.96091 37894 ft 502 kts 326°
2026-04-20 17:05 44.86757 -122.00239 37901 ft 502 kts 326°
2026-04-20 17:06 44.93086 -122.04407 37890 ft 502 kts 326°
2026-04-20 17:06 44.99430 -122.08596 37882 ft 504 kts 326°
2026-04-20 17:07 45.05775 -122.12793 37877 ft 504 kts 326°
2026-04-20 17:07 45.12117 -122.16997 37872 ft 503 kts 326°
2026-04-20 17:08 45.18451 -122.21209 37870 ft 503 kts 327°
2026-04-20 17:08 45.24799 -122.25443 37880 ft 505 kts 327°
2026-04-20 17:09 45.31148 -122.29695 37865 ft 505 kts 326°
2026-04-20 17:09 45.37487 -122.33979 37866 ft 505 kts 327°
2026-04-20 17:10 45.43838 -122.38269 37863 ft 505 kts 327°
2026-04-20 17:10 45.50195 -122.42565 37859 ft 505 kts 327°
2026-04-20 17:11 45.56545 -122.46862 37862 ft 504 kts 327°
2026-04-20 17:11 45.59676 -122.48977 37571 ft 491 kts 328°
2026-04-20 17:11 45.62744 -122.51051 37059 ft 484 kts 328°
2026-04-20 17:11 45.65738 -122.53086 36451 ft 484 kts 328°
2026-04-20 17:12 45.68783 -122.55164 35867 ft 484 kts 328°
2026-04-20 17:12 45.71815 -122.57236 35282 ft 485 kts 328°
2026-04-20 17:12 45.74952 -122.59096 34685 ft 492 kts 337°
2026-04-20 17:12 45.78287 -122.60362 34071 ft 497 kts 344°
2026-04-20 17:13 45.81695 -122.61260 33344 ft 498 kts 348°
2026-04-20 17:13 45.85118 -122.62008 32651 ft 499 kts 349°
2026-04-20 17:13 45.88556 -122.62736 31995 ft 498 kts 350°
2026-04-20 17:13 45.91976 -122.63492 31338 ft 498 kts 350°
2026-04-20 17:14 45.95393 -122.64287 30699 ft 497 kts 350°
2026-04-20 17:14 45.98801 -122.65112 30050 ft 496 kts 351°
2026-04-20 17:14 46.02202 -122.65956 29311 ft 497 kts 351°
2026-04-20 17:14 46.05615 -122.66809 28597 ft 498 kts 351°
2026-04-20 17:15 46.09030 -122.67649 27889 ft 498 kts 351°
2026-04-20 17:15 46.12458 -122.68408 27237 ft 498 kts 352°
2026-04-20 17:15 46.15884 -122.69106 26559 ft 497 kts 352°
2026-04-20 17:15 46.19293 -122.69774 25889 ft 491 kts 352°
2026-04-20 17:16 46.22669 -122.70428 25218 ft 486 kts 352°
2026-04-20 17:16 46.25995 -122.71076 24550 ft 480 kts 352°
2026-04-20 17:16 46.29288 -122.71723 23896 ft 475 kts 352°
2026-04-20 17:16 46.32558 -122.72243 23202 ft 470 kts 355°
2026-04-20 17:17 46.35801 -122.72504 22437 ft 464 kts 358°
2026-04-20 17:17 46.39013 -122.72631 21739 ft 460 kts 359°
2026-04-20 17:17 46.42198 -122.72709 21041 ft 455 kts 359°
2026-04-20 17:17 46.45350 -122.72782 20377 ft 451 kts 359°
2026-04-20 17:18 46.48470 -122.72866 19731 ft 447 kts 359°
2026-04-20 17:18 46.51557 -122.72961 19071 ft 441 kts 359°
2026-04-20 17:18 46.54610 -122.73064 18449 ft 437 kts 359°
2026-04-20 17:18 46.57634 -122.73171 17754 ft 433 kts 359°
2026-04-20 17:19 46.60627 -122.73279 17120 ft 428 kts 359°
2026-04-20 17:19 46.63595 -122.73388 16537 ft 425 kts 359°
2026-04-20 17:19 46.66533 -122.73496 16101 ft 421 kts 359°
2026-04-20 17:19 46.69413 -122.73603 15872 ft 404 kts 359°
2026-04-20 17:20 46.72146 -122.73705 15755 ft 382 kts 359°
2026-04-20 17:20 46.74722 -122.73801 15525 ft 371 kts 359°
2026-04-20 17:20 46.77274 -122.73708 15050 ft 365 kts 10°
2026-04-20 17:20 46.79656 -122.72594 14430 ft 357 kts 32°
2026-04-20 17:21 46.81718 -122.70573 13834 ft 351 kts 42°
2026-04-20 17:21 46.83571 -122.68331 13206 ft 348 kts 44°
2026-04-20 17:21 46.85343 -122.65960 12624 ft 344 kts 47°
2026-04-20 17:21 46.87047 -122.63540 12162 ft 336 kts 48°
2026-04-20 17:22 46.88698 -122.61179 11961 ft 327 kts 48°
2026-04-20 17:22 46.90287 -122.58918 11730 ft 314 kts 48°
2026-04-20 17:22 46.91811 -122.56664 11237 ft 309 kts 50°
2026-04-20 17:22 46.93307 -122.54392 10691 ft 311 kts 50°
2026-04-20 17:23 46.94805 -122.52106 10259 ft 309 kts 50°
2026-04-20 17:23 46.96272 -122.49876 10063 ft 298 kts 50°
2026-04-20 17:23 46.97715 -122.47756 9823 ft 292 kts 44°
2026-04-20 17:23 46.99356 -122.46005 9384 ft 294 kts 36°
2026-04-20 17:24 47.01118 -122.44431 8781 ft 299 kts 34°
2026-04-20 17:24 47.02888 -122.42925 8218 ft 289 kts 32°
2026-04-20 17:24 47.04604 -122.41483 7737 ft 278 kts 32°
2026-04-20 17:24 47.06248 -122.40098 7308 ft 269 kts 32°
2026-04-20 17:25 47.07860 -122.38740 6943 ft 266 kts 32°
2026-04-20 17:25 47.09454 -122.37385 6592 ft 263 kts 32°
2026-04-20 17:25 47.11027 -122.36044 6204 ft 261 kts 32°
2026-04-20 17:25 47.12694 -122.35033 6017 ft 260 kts 15°
2026-04-20 17:26 47.14477 -122.34485 5723 ft 263 kts 11°
2026-04-20 17:26 47.16267 -122.34046 5309 ft 258 kts 10°
2026-04-20 17:26 47.18033 -122.33640 4945 ft 256 kts 10°
2026-04-20 17:26 47.19786 -122.33239 4579 ft 253 kts
2026-04-20 17:27 47.21494 -122.32849 4207 ft 245 kts
2026-04-20 17:27 47.23161 -122.32472 4022 ft 242 kts
2026-04-20 17:27 47.24811 -122.32122 4021 ft 231 kts
2026-04-20 17:27 47.26347 -122.31961 3759 ft 220 kts
2026-04-20 17:28 47.27861 -122.31936 3487 ft 211 kts
2026-04-20 17:28 47.29287 -122.31931 3265 ft 197 kts
2026-04-20 17:28 47.30607 -122.31943 2943 ft 180 kts
2026-04-20 17:28 47.31882 -122.31921 2724 ft 178 kts
2026-04-20 17:29 47.33061 -122.31914 2549 ft 165 kts
2026-04-20 17:29 47.34183 -122.31908 2304 ft 159 kts
2026-04-20 17:29 47.35290 -122.31895 2132 ft 158 kts
2026-04-20 17:29 47.36383 -122.31885 1910 ft 155 kts
2026-04-20 17:30 47.37453 -122.31872 1725 ft 154 kts
2026-04-20 17:30 47.38515 -122.31864 1535 ft 152 kts
2026-04-20 17:30 47.39571 -122.31856 1295 ft 150 kts
2026-04-20 17:30 47.40623 -122.31840 1105 ft 152 kts
2026-04-20 17:31 47.41662 -122.31838 844 ft 151 kts
2026-04-20 17:31 47.42714 -122.31834 679 ft 152 kts
2026-04-20 17:31 47.43768 -122.31818 474 ft 150 kts
2026-04-20 17:31 47.44759 -122.31795 394 ft 125 kts
2026-04-20 17:32 47.45472 -122.31796 401 ft 82 kts
2026-04-20 17:32 47.45926 -122.31794 400 ft 48 kts
2026-04-20 17:32 47.46232 -122.31791 397 ft 41 kts
2026-04-20 17:32 47.46349 -122.31760 398 ft 9 kts 47°
2026-04-20 17:33 47.46366 -122.31690 398 ft 6 kts 82°
2026-04-20 17:33 47.46368 -122.31607 398 ft 10 kts 89°
2026-04-20 17:33 47.46368 -122.31483 398 ft 12 kts 89°
2026-04-20 17:33 47.46368 -122.31363 398 ft 11 kts 90°
2026-04-20 17:34 47.46368 -122.31252 398 ft 10 kts 89°
2026-04-20 17:34 47.46368 -122.31144 398 ft 12 kts 90°
2026-04-20 17:34 47.46366 -122.30988 398 ft 17 kts 91°
2026-04-20 17:34 47.46368 -122.30827 398 ft 15 kts 88°
2026-04-20 17:35 47.46375 -122.30703 401 ft 10 kts 86°
2026-04-20 17:35 47.46355 -122.30626 398 ft 7 kts 127°
2026-04-20 17:35 47.46325 -122.30572 397 ft 6 kts 134°
2026-04-20 17:35 47.46287 -122.30531 400 ft 8 kts 150°
2026-04-20 17:36 47.46240 -122.30510 397 ft 6 kts 174°
2026-04-20 17:36 47.46200 -122.30488 398 ft 8 kts 141°
2026-04-20 17:36 47.46187 -122.30417 398 ft 7 kts 100°
2026-04-20 17:36 47.46178 -122.30320 396 ft 12 kts 99°
2026-04-20 17:37 47.46171 -122.30248 400 ft 5 kts 96°
2026-04-20 17:37 47.46165 -122.30185 397 ft 7 kts 99°
2026-04-20 17:37 47.46156 -122.30113 400 ft 4 kts 110°
2026-04-20 17:37 47.46133 -122.30092 400 ft 5 kts 156°
2026-04-20 17:38 47.46093 -122.30082 400 ft 0 kts 181°